Location: Madrid
(40.4000°N, 3.6830°W)
Time: 02:53:54
(UTC+02:00)

ISS - Pass Details

Date: 24 May 2019
Orbit: 408 x 418 km, 51.6° (Epoch: 26 May)

Event Time Altitude Azimuth Distance (km) Brightness Sun altitude
Rises 01:02:17 0° 310° (NW) 2,356 0.9 -26.8°
Reaches altitude 10° 01:05:10 10° 337° (NNW) 1,495 0.0 -27.0°
Maximum altitude 01:07:01 14° 11° (N) 1,278 -0.6 -27.1°
Enters shadow 01:08:21 12° 36° (NE) 1,396 -0.7 -27.2°
